User: anonymous   Login
Location: Deer Lodge Site
(39.6809°N, 119.9392°W)
Time: 05:18:47
(UTC-08:00)
Language:

CZ-4C R/B - Orbit

View from above orbital plane
View from above orbital plane
View from above satellite
View from above satellite

Ground track
Ground track

The orbit data is extracted from the following two-line orbital elements,

1 36416U 10009D   17326.87491613 -.00000054  00000-0  27244-4 0  9991
2 36416  63.4364 198.5383 0402741 355.9838   3.7997 13.69524596386107
Epoch (UTC): 22 November 2017 20:59:52
Eccentricity: 0.0402741
inclination: 63.4364°
perigee height: 704 km
apogee height: 1298 km
right ascension of ascending node: 198.5383°
argument of perigee: 355.9838°
revolutions per day: 13.69524596
mean anomaly at epoch: 3.7997°
orbit number at epoch: 38610

The dashed part of the orbit path shows where the satellite is in the earth's shadow,  

DLR